COSMOS 1275 DEB, 17639

Orbit data source: Space-Track

COSMOS 1275 DEB, 17639 is space debris in LEO originally from a launch on Thu, 04 Jun 1981 UTC launched from the Plesetsk Missile And Space Complex (PKMTR). Debris objects in space refer to the collection of defunct objects orbiting the Earth. Examples of debris include non-operational satellites, rocket bodies, and fragments generated from explosions, collisions, or faulty payload assembly.

Loading next visibility...
Identifier
17639, 1981-053LJ
Orbit
LEO
Country
Flag of CISCIS
Related business
Manufacturer
Unknown
Mission
Spacecraft
Bus & Motor
Unknown
Mass
Unknown
Launch date (UTC)
1981-06-04 (45 years ago)
Launch vehicle
Unknown
Launch site
Plesetsk Missile And Space Complex (PKMTR)
Object type
Payload
Rocket body
Debris
Shape & HBR
Unknown shape, 0.1 m
Radar Cross Section
Small (<0.1 m²)

Expand to show TLE details & history
Last TLE update: 3 days ago

TLE from 3 days ago
0 COSMOS 1275 DEB
1 17639U 81053LJ  26118.07221544  .00000997  00000-0  11615-2 0  9997
2 17639  82.9974 152.6455 0152078 308.8192  78.5016 13.63077249 24149
Epoch: 2026-04-28T01:43Z
TLE epoch observation values (Epoch: 2026-04-28T01:43:59.414Z)
Latitude
28.84273°
Longitude
-85.54617°
Altitude
1,007.291 km
Speed
7.361 km/s
True Right ascension
10h 26m 00s
True Declination
28° 42' 09"
Sunlit
Object was in daylight at epoch
Visualization orbit readout
Latitude
Unknown
Longitude
Unknown
Altitude
Unknown
Speed
Unknown
Apparent Right ascension
Unknown
Apparent Declination
Unknown
Sunlit
N/A
Visualization observer readout
Local Sidereal Time
15:46:49
Azimuth
Unknown
Elevation
Unknown
Doppler factor
Unknown
Orbital elements
Apogee altitude
1,134.227 km
Perigee altitude
909.157 km
Semi-major axis
7,399.829 km
Eccentricity
0.01521
Inclination
82.9974°
RAAN
152.6455°
Arg. of periapsis
308.8192°
True anomaly
80.21555°
Mean anomaly
78.5016°
Eccentric anomaly
79.35796°
Mean motion
3.40966 °/min
Orbital period
105.58 mins
BSTAR
0.0011615
Loading maneuver chart data...
Computing Atmospheric mass density...
Loading historical data...
Loading historical data...
Loading historical data...
Loading historical data...
Loading historical data...
Loading historical data...
Loading historical data...

Documentation

Showing up to 5 results
|